Flag for Brazil Weather past 2 weeks in Maceió, Alagoas, Brazil

Now
82 °F

Scattered clouds.


Feels Like: 84 °F
Forecast: 76 / 86 °F
Wind: 12 mph from Southeast

Location: Maceio Aeroporto

Current Time: Mar 30, 2015 at 2:09:31 PM

Latest Report: Mar 30, 2015 at 1:00 PM


Visibility: N/A

Pressure: 29.92 "Hg

Humidity: 55%

Dew point: 64 °F

Location of MaceióLocation

Historic Weather in Maceió — Graph

°F

Maceió temperature yesterday

Maximum temperature yesterday: 90 °F (at 1:00 PM)
Minimum temperature yesterday: 75 °F (at 1:00 AM)
Average temperature yesterday: 81 °F

Past Weeks' High & Low Weather Summary

 TemperatureHumidityPressure
High90 °F (Mar 25, 12:00 PM)100% (Mar 16, 4:00 AM)30.07 "Hg (Mar 16, 4:00 AM)
Low70 °F (Mar 30, 6:00 AM)43% (Mar 24, 3:00 PM)29.83 "Hg (Mar 15, 2:00 PM)
Average79 °F79%29.93 "Hg
* Reported Mar 15 1:00 PM — Mar 30 1:00 PM, Maceió, Weather by CustomWeather, © 2015

Note: Actual official high and low records may vary slightly from our data, if they occured in-between our weather recording intervals... More about our weather records

Advertising

Maceió weather history for previous 24 hours

 ConditionsComfort  
Time TempWeatherWind HumidityBarometerVisibility
1:00 PM
Mon, Mar 30
82 °FScattered clouds.12 mph55%29.92 "HgN/A
12:00 PM82 °FScattered clouds.10 mph55%29.95 "HgN/A
11:00 AM82 °FScattered clouds.12 mph58%29.98 "HgN/A
10:00 AM81 °FScattered clouds.13 mph66%29.98 "HgN/A
9:00 AM81 °FScattered clouds.13 mph62%29.98 "HgN/A
8:00 AM77 °FScattered clouds.7 mph74%29.98 "HgN/A
7:00 AM75 °FScattered clouds.6 mph83%29.95 "HgN/A
6:00 AM70 °FPassing clouds.No wind100%29.95 "HgN/A
5:00 AM72 °FPassing clouds.No wind94%29.92 "HgN/A
4:00 AM73 °FClear.5 mph89%29.92 "Hg10 mi
3:00 AM72 °FPassing clouds.3 mph100%29.92 "HgN/A
2:00 AM72 °FPassing clouds.No wind100%29.92 "HgN/A
1:00 AM72 °FPassing clouds.3 mph100%29.92 "HgN/A
12:00 AM73 °FPassing clouds.3 mph100%29.95 "HgN/A
11:00 PM
Sun, Mar 29
75 °FRain. Partly cloudy.6 mph94%29.98 "Hg2 mi
10:00 PM77 °FPassing clouds.3 mph94%29.98 "HgN/A
9:00 PM77 °FPassing clouds.3 mph94%29.98 "HgN/A
8:00 PM79 °FPassing clouds.5 mph84%29.95 "HgN/A
7:00 PM79 °FPassing clouds.6 mph84%29.95 "HgN/A
6:00 PM81 °FPassing clouds.12 mph79%29.92 "HgN/A
5:00 PM82 °FScattered clouds.16 mph74%29.92 "HgN/A
4:00 PM86 °FScattered clouds.14 mph62%29.92 "HgN/A
3:00 PM88 °FScattered clouds.15 mph55%29.89 "HgN/A
2:00 PM88 °FScattered clouds.15 mph52%29.92 "HgN/A
Weather by CustomWeather, © 2015

See weather overviewHow to use our weather pages